This demonstration page uses our WeatherBlox Daily Observations layout. Learn more.

Hourly Observations for October 30, 2017

Temp ( °F °C ) Dew Point ( °F °C ) Humidity (%) Winds ( mph kmh ) Pressure ( in mb ) Visibility ( mi km ) Precip ( " mm )
12:54 am 00:54 Clear 50 10 36 2.2 59 59 undefined N/A 29.91 1013 10 16.09344 0 0
1:54 am 01:54 Mostly Cloudy 50 10 35 1.7 57 57 undefined N/A 29.94 1014 10 16.09344 0 0
2:54 am 02:54 Cloudy 50 10 30 -1.1 46 46 undefined N/A 29.94 1014 10 16.09344 0 0
3:54 am 03:54 Cloudy 49 9.4 27 -2.8 43 43 undefined N/A 29.94 1014 10 16.09344 0 0
4:54 am 04:54 Cloudy 48 8.9 25 -3.9 41 41 undefined N/A 29.97 1015 10 16.09344 0 0
5:54 am 05:54 Mostly Cloudy 48 8.9 23 -5 37 37 undefined N/A 29.97 1015 10 16.09344 0 0
5:57 am 05:57 Mostly Cloudy 47 8.3 23 -5 39 39 NW 18 30 30.03 1017 10 16.09344 0 0
6:54 am 06:54 Clear 46 7.8 21 -6.1 37 37 NW 18 30 30 1016 10 16.09344 0 0
7:54 am 07:54 Clear 44 6.7 22 -5.6 41 41 WNW 9 15 30.03 1017 10 16.09344 0 0
8:54 am 08:54 Sunny 44 6.7 20 -6.7 38 38 WNW 13 20 30.03 1017 10 16.09344 0.001 0.001
9:54 am 09:54 Sunny with Light Rain 43 6.1 19 -7.2 38 38 NNW 23 37 30.06 1018 10 16.09344 0.001 0.001
10:54 am 10:54 Mostly Cloudy 43 6.1 20 -6.7 40 40 NW 35 56 30.09 1019 10 16.09344 0.001 0.001
11:54 am 11:54 Cloudy 43 6.1 21 -6.1 42 42 NW 33 54 30.12 1020 10 16.09344 0 0
12:54 pm 12:54 Cloudy 43 6.1 21 -6.1 42 42 NNW 29 46 30.12 1020 10 16.09344 0 0
1:54 pm 13:54 Cloudy 42 5.6 21 -6.1 43 43 NNW 22 35 30.12 1020 10 16.09344 0 0
2:54 pm 14:54 Cloudy 41 5 21 -6.1 45 45 NW 22 35 30.15 1021 10 16.09344 0 0
3:54 pm 15:54 Cloudy 40 4.4 21 -6.1 47 47 NW 20 31 30.15 1021 10 16.09344 0 0
4:54 pm 16:54 Cloudy 40 4.4 20 -6.7 45 45 NW 20 31 30.15 1021 10 16.09344 0 0
5:54 pm 17:54 Cloudy 39 3.9 19 -7.2 45 45 NW 21 33 30.18 1022 10 16.09344 0 0
6:54 pm 18:54 Cloudy 38 3.3 19 -7.2 46 46 NW 18 30 30.21 1023 10 16.09344 0 0
7:54 pm 19:54 Cloudy 38 3.3 19 -7.2 46 46 NW 14 22 30.21 1023 10 16.09344 0 0
8:54 pm 20:54 Cloudy 37 2.8 20 -6.7 50 50 NNW 15 24 30.24 1024 10 16.09344 0 0
9:54 pm 21:54 Cloudy 37 2.8 18 -7.8 46 46 NW 16 26 30.24 1024 10 16.09344 0 0
10:54 pm 22:54 Cloudy 37 2.8 17 -8.3 44 44 NW 13 20 30.27 1025 10 16.09344 0 0
11:54 pm 23:54 Cloudy 37 2.8 17 -8.3 44 44 NNW 17 28 30.27 1025 10 16.09344 0 0

Powered by AerisWeather